Location: Most
(50.5133°N, 13.6207°E)
Time: 09:01:40
(UTC+02:00)

Envisat - Visible Passes

Search period start: 23 September 2021 00:00
Search period end: 03 October 2021 00:00
Orbit: 764 x 766 km, 98.2° (Epoch: 22 September)

Date Brightness Start Highest point End Pass type
(mag) Time Alt. Az. Time Alt. Az. Time Alt. Az.
23 Sep 5.1 05:32:32 10° NNE 05:36:59 30° E 05:41:24 10° SSE visible
24 Sep 5.9 04:56:48 10° NE 04:59:43 15° E 05:02:36 10° ESE visible
25 Sep 4.2 05:57:34 10° NNE 06:02:30 47° E 06:07:23 10° S visible
26 Sep 5.4 05:21:15 10° NE 05:25:22 24° E 05:29:28 10° SE visible
27 Sep 6.1 04:46:05 10° ENE 04:48:01 12° E 04:49:58 10° ESE visible
27 Sep 3.3 06:22:48 10° NNE 06:27:55 77° ESE 06:33:00 10° S visible
28 Sep 4.6 05:46:10 10° NNE 05:50:56 39° E 05:55:39 10° SSE visible
29 Sep 5.7 05:10:02 10° NE 05:13:44 20° E 05:17:24 10° SE visible
30 Sep 3.6 06:11:19 10° NNE 06:16:23 63° E 06:21:25 10° S visible
01 Oct 5.0 05:34:48 10° NNE 05:39:20 31° E 05:43:50 10° SSE visible
02 Oct 5.9 04:58:57 10° NE 05:02:04 16° E 05:05:10 10° SE visible
